SCP
0 0 0 0 0 0 0 0 0 0 0 0 0 0 0 0 0 0 0 0 0 0 0 0 0 0 0 0 0 0 0 0 0 0 0 0 0 0 0 0 0 0 0
0 0 0 0 0 0 0 0 0 0 0 0 0 0 0 0 0 0 0 0 0 0 0 0 0 0 0 0 0 0 0 0 0 0 0 0 0 0 0 0 0 0 0
0 0 0 0 0 0 0 0 0 0 0 0 0 0 0 0 0 0 0 0 0 0 0 0 0 0 0 0 0 0 0 0 0 0 0 0 0 0 0 0 0 0 0
0 0 0 0 0 0 0 0 0 0 0 0 0 0 0 0 0 0 0 0 0 0 0 0 0 0 0 0 0 0 0 0 0 0 0 0 0 0 0 0 0 0 0
0 0 0 0 0 0 0 0 0 0 0 0 0 0 0 0 0 0 0 0 0 0 0 0 0 0 0 0 0 0 0 0 0 0 0 0 0 0 0 0 0 0 0
0 0 0 0 0 0 0 0 0 0 0 0 0 0 0 0 0 0 0 0 0 0 0 0 0 0 0 0 0 0 0 0 0 0 0 0 0 0 0 0 0 0 0
0 0 0 0 0 0 0 0 0 0 0 0 0 0 0 0 0 0 0 0 0 0 0 0 0 0 0 0 0 0 0 0 0 0 0 0 0 0 0 0 0 0 0
0 0 0 0 0 0 0 0 0 0 0 0 0 0 0 0 0 0 0 0 0 0 0 0 0 0 0 0 0 0 0 0 0 0 0 0 0 0 0 0 0 0 0
0 0 0 0 0 0 0 0 0 0 0 0 0 0 0 0 0 0 0 0 0 0 0 0 0 0 0 0 0 0 0 0 0 0 0 0 0 0 0 0 0 0 0
0 0 0 0 0 0 0 0 0 0 0 0 0 0 0 0 0 0 0 0 0 0 0 0 0 0 0 0 0 0 0 0 0 0 0 0 0 0 0 0 0 0 0
0 0 0 0 0 0 0 0 0 0 0 0 0 0 0 0 0 0 0 0 0 0 0 0 0 0 0 0 0 0 0 0 0 0 0 0 0 0 0 0 0 0 0
0 0 0 0 0 0 0 0 0 0 0 0 0 0 0 0 0 0 0 0 0 0 0 0 0 0 0 0 0 0 0 0 0 0 0 0 0 0 0 0 0 0 0
0 0 0 0 0 0 0 0 0 0 0 0 0 0 0 0 0 0 0 0 0 0 0 0 0 0 0 0 0 0 0 0 0 0 0 0 0 0 0 0 0 0 0
0 0 0 0 0 0 0 0 0 0 0 0 0 0 0 0 0 0 0 0 0 0 0 0 0 0 0 0 0 0 0 0 0 0 0 0 0 0 0 0 0 0 0
0 0 0 0 0 0 0 0 0 0 0 0 0 0 0 0 0 0 0 0 0 0 0 0 0 0 0 0 0 0 0 0 0 0 0 0 0 0 0 0 0 0 0
0 0 0 0 0 0 0 0 0 0 0 0 0 0 0 0 0 0 0 0 0 0 0 0 0 0 0 0 0 0 0 0 0 0 0 0 0 0 0 0 0 0 0
0 0 0 0 0 0 0 0 0 0 0 0 0 0 0 0 0 0 0 0 0 0 0 0 0 0 0 0 0 0 0 0 0 0 0 0 0 0 0 0 0 0 0
0 0 0 0 0 0 0 0 0 0 0 0 0 0 0 0 0 0 0 0 0 0 0 0 0 0 0 0 0 0 0 0 0 0 0 0 0 0 0 0 0 0 0
0 0 0 0 0 0 0 0 0 0 0 0 0 0 0 0 0 0 0 0 0 0 0 0 0 0 0 0 0 0 0 0 0 0 0 0 0 0 0 0 0 0 0
0 0 0 0 0 0 0 0 0 0 0 0 0 0 0 0 0 0 0 0 0 0 0 0 0 0 0 0 0 0 0 0 0 0 0 0 0 0 0 0 0 0 0
0 0 0 0 0 0 0 0 0 0 0 0 0 0 0 0 0 0 0 0 0 0 0 0 0 0 0 0 0 0 0 0 0 0 0 0 0 0 0 0 0 0 0
0 0 0 0 0 0 0 0 0 0 0 0 0 0 0 0 0 0 0 0 0 0 0 0 0 0 0 0 0 0 0 0 0 0 0 0 0 0 0 0 0 0 0
0 0 0 0 0 0 0 0 0 0 0 0 0 0 0 0 0 0 0 0 0 0 0 0 0 0 0 0 0 0 0 0 0 0 0 0 0 0 0 0 0 0 0
0 0 0 0 0 0 0 0 0 0 0 0 0 0 0 0 0 0 0 0 0 0 0 0 0 0 0 0 0 0 0 0 0 0 0 0 0 0 0 0 0 0 0
0 0 0 0 0 0 0 0 0 0 0 0 0 0 0 0 0 0 0 0 0 0 0 0 0 0 0 0 0 0 0 0 0 0 0 0 0 0 0 0 0 0 0
0 0 0 0 0 0 0 0 0 0 0 0 0 0 0 0 0 0 0 0 0 0 0 0 0 0 0 0 0 0 0 0 0 0 0 0 0 0 0 0 0 0 0
Wind_Speed
6 5 4 3 3 3 3 2 1 3 2 3 1 1 1 1 2 3 1 2 3 3 2 2 2 3 2 2 1 1 1 1 1 2 1 1 1 1 1 1 1 2 3
5 5 5 5 4 3 4 4 3 2 1 0 2 0 0 2 3 2 1 1 1 2 3 2 1 2 2 2 2 2 1 1 1 2 2 2 2 1 0 1 2 2 2
6 5 5 5 5 5 4 4 3 2 1 2 2 2 1 2 2 2 2 1 0 0 1 2 2 2 1 1 1 1 1 1 1 1 2 1 1 1 1 2 3 2 3
7 6 5 5 5 4 3 4 3 3 3 2 1 1 2 1 1 0 1 0 1 1 1 1 0 2 3 3 2 2 2 2 1 1 1 2 2 2 1 2 3 2 3
8 7 6 5 5 4 4 3 2 1 2 2 1 1 1 1 1 2 3 2 2 1 1 2 3 4 4 2 2 3 3 2 2 1 1 2 2 1 1 1 2 3 3
8 8 6 5 5 5 5 5 4 3 3 2 2 2 1 1 5 4 1 3 3 3 2 1 4 5 4 3 2 1 0 1 2 2 2 2 2 2 1 1 2 2 3
9 8 8 6 6 6 5 4 4 4 3 2 2 2 2 2 5 5 4 2 3 4 3 2 0 3 5 3 5 5 5 7 6 2 2 3 3 2 2 2 2 2 3
9 8 8 7 6 6 5 4 4 4 4 4 4 3 2 3 7 7 6 4 4 5 5 4 2 2 3 2 1 3 4 5 7 5 4 4 2 1 1 2 3 3 4
10 9 8 8 7 6 6 5 4 4 3 3 3 4 4 3 6 8 6 3 4 6 5 4 3 3 4 3 1 2 3 3 4 7 7 6 6 6 4 1 2 2 3
10 9 8 8 8 7 6 5 3 3 3 2 2 3 3 2 4 6 6 2 3 4 3 2 2 3 6 5 2 1 3 3 4 2 3 6 6 6 7 5 3 2 2
9 9 8 8 8 7 5 4 3 3 2 2 2 2 2 3 3 5 5 2 2 3 2 0 1 4 5 5 2 1 1 2 3 4 3 3 2 1 1 2 2 2 2
9 9 8 8 7 6 6 4 4 3 3 2 2 1 1 3 4 4 4 4 2 2 2 2 1 3 4 3 1 0 2 3 2 2 2 2 2 2 2 2 2 2 3
10 9 8 8 6 6 6 5 4 3 3 2 2 2 1 2 3 3 1 2 3 1 1 3 3 3 2 1 1 0 1 1 1 1 2 2 2 2 3 3 3 4 4
10 9 8 8 7 6 5 4 3 3 2 2 2 2 2 3 3 3 2 1 1 0 1 2 3 3 2 1 1 1 1 1 1 1 2 2 3 3 3 2 3 3 3
10 9 9 8 8 6 5 3 4 3 3 3 2 3 3 3 2 3 2 2 2 2 1 1 2 1 1 1 2 2 2 2 2 2 2 2 3 3 3 3 3 3 3
9 9 8 7 7 8 8 6 10 7 10 11 9 7 5 7 6 5 4 4 3 3 2 2 2 3 3 2 2 2 2 2 2 2 2 2 2 3 3 3 3 3 3
9 9 8 8 9 9 9 9 7 5 8 9 9 10 9 8 6 4 3 3 3 4 3 3 3 3 2 2 2 2 1 1 1 1 1 1 2 2 2 3 3 3 3
8 10 9 8 9 9 9 9 9 9 6 4 4 8 9 8 6 4 2 2 2 2 2 3 2 2 2 1 1 1 1 1 1 1 1 2 2 2 3 3 3 3 3
8 7 8 8 8 8 9 9 9 9 8 7 5 4 6 6 5 4 2 2 2 3 2 2 2 2 1 1 1 1 1 1 1 1 1 2 2 2 3 3 4 6 5
6 10 10 8 8 8 8 9 9 9 9 8 8 7 6 4 3 3 2 2 2 2 3 2 2 2 2 1 1 1 1 1 2 1 2 2 2 2 3 4 4 4 4
5 8 13 9 8 8 9 9 9 8 8 8 7 8 10 6 5 5 4 3 3 3 3 2 2 2 2 1 1 1 2 2 2 2 2 3 3 3 4 4 5 5 5
6 7 7 8 7 8 8 8 8 8 9 9 7 7 11 6 5 4 4 4 4 3 3 3 2 2 2 1 1 1 2 2 2 2 3 3 3 4 4 5 5 5 6
6 7 7 7 7 9 9 8 8 8 8 9 9 8 6 5 5 5 4 4 4 3 3 3 2 2 1 1 1 1 1 2 2 3 3 3 4 4 5 6 7 8 8
6 7 8 7 7 8 8 8 8 9 9 9 9 8 7 6 5 6 5 5 4 4 3 3 2 2 1 1 1 3 3 3 3 3 4 4 5 5 6 7 8 9 9
6 7 8 8 8 8 8 8 8 9 8 8 8 8 7 6 6 6 5 5 5 4 3 3 2 2 2 3 4 4 4 5 4 3 3 4 6 7 7 8 8 9 10
5 6 7 7 8 8 9 9 9 9 8 8 8 7 7 7 6 6 5 5 4 4 3 2 2 3 4 4 5 4 3 3 3 5 4 5 6 7 8 8 11 11 12
Wind_Direction
179 180 169 174 192 182 189 158 224 264 225 170 165 334 42 68 91 100 46 24 358 353 5 76 62 48 19 359 8 355 351 29 3 320 354 14 48 14 4 325 280 246 230
177 176 183 180 182 210 187 184 215 225 325 95 132 203 103 95 80 80 43 23 2 353 358 29 58 78 37 1 3 352 2 26 42 349 333 2 5 328 335 311 292 281 270
173 186 192 180 185 206 187 171 196 181 224 257 174 187 140 114 134 172 174 229 200 205 18 25 14 53 23 32 340 344 360 19 43 2 325 342 321 318 345 303 294 292 294
173 193 197 187 186 195 187 164 189 181 186 263 277 174 130 118 167 130 109 241 274 213 169 159 46 41 42 22 3 6 7 5 353 338 315 313 302 305 341 310 316 319 302
172 190 199 192 181 179 165 156 185 214 202 202 249 273 146 163 109 64 16 334 320 303 246 173 136 117 98 70 35 11 9 355 339 329 307 315 306 327 327 323 316 310 301
175 185 188 195 180 176 179 177 190 214 233 209 218 238 212 167 136 133 121 323 317 303 285 211 153 158 166 180 209 228 249 324 333 332 310 305 301 309 324 330 317 334 312
180 183 181 190 184 178 185 183 191 205 223 230 233 243 232 176 169 176 187 238 289 296 298 292 229 144 162 194 218 230 243 240 230 239 279 287 302 335 354 339 325 304 273
184 184 177 181 181 177 181 186 195 203 211 213 219 221 221 216 197 197 201 221 253 267 268 254 224 178 167 156 188 229 241 229 222 220 229 253 274 321 322 290 286 289 281
185 181 175 173 175 177 184 195 199 200 208 206 200 204 212 224 209 203 193 223 240 249 250 237 205 164 139 129 115 301 302 298 241 221 230 250 263 264 247 269 285 287 292
180 173 170 170 170 175 181 188 187 180 190 199 213 204 200 199 196 193 193 237 259 264 254 215 183 156 149 146 156 270 301 315 338 329 279 271 261 260 244 212 222 253 284
165 162 164 164 165 166 169 169 165 164 176 205 223 206 171 157 159 170 177 231 280 299 312 20 93 140 146 163 175 222 319 331 331 325 309 301 300 296 282 211 220 221 245
153 156 158 159 164 158 152 157 160 161 172 198 215 222 144 129 128 159 181 212 272 308 335 11 49 116 142 157 175 291 340 342 314 310 316 335 350 351 353 359 333 308 270
149 153 154 153 153 148 150 158 164 167 177 187 181 174 129 104 97 99 157 237 253 235 106 91 90 101 107 137 183 333 3 349 320 317 340 351 347 344 344 336 323 314 305
156 158 159 159 154 148 147 157 156 160 169 168 150 138 118 91 66 40 17 11 332 273 170 136 118 99 77 44 80 84 73 41 19 11 1 348 345 347 344 338 329 328 321
163 166 168 163 157 147 119 86 117 82 107 128 119 108 109 106 78 61 56 41 30 30 23 95 102 98 87 67 60 62 57 45 34 17 12 1 353 351 342 339 333 329 318
173 174 170 163 155 145 131 98 64 93 92 88 94 109 92 109 122 94 76 62 43 33 63 81 80 76 71 64 58 46 48 49 35 22 14 2 348 340 331 328 329 329 319
181 176 169 165 161 156 153 148 136 94 81 90 100 109 121 131 126 115 90 57 42 56 78 83 82 79 75 66 59 52 35 28 30 13 348 334 329 326 327 326 329 328 322
187 180 172 168 166 164 162 160 157 155 152 138 120 130 137 144 147 151 140 85 77 86 98 101 99 94 88 76 57 41 26 10 4 346 339 341 341 333 327 321 316 313 308
190 179 173 168 166 166 161 159 159 161 157 152 148 154 166 163 167 186 182 155 138 128 123 119 117 114 110 100 78 25 358 339 329 327 331 330 326 325 319 314 312 313 312
194 185 173 168 167 166 165 164 163 163 159 160 164 166 169 170 172 174 171 149 136 132 129 125 118 108 100 86 65 7 332 327 337 340 334 334 333 329 319 315 311 308 303
188 182 177 174 174 172 170 169 165 162 162 162 161 162 167 172 168 160 157 153 146 143 134 128 127 117 103 81 40 345 337 339 351 355 353 345 338 326 315 308 306 304 303
192 182 183 180 173 172 170 167 162 161 159 151 144 151 163 165 155 152 152 153 148 141 136 131 128 126 125 117 65 5 349 348 358 3 354 342 333 324 318 312 309 306 303
194 184 184 181 172 169 168 165 161 159 155 151 151 154 164 164 153 151 149 143 135 130 126 124 125 125 117 109 89 63 34 19 13 10 354 335 323 314 308 303 302 303 301
195 187 183 181 175 172 171 165 162 159 157 156 156 158 163 161 154 150 145 138 133 130 127 127 129 124 95 82 80 78 67 48 25 12 355 329 313 302 299 296 295 295 295
204 193 185 182 178 174 170 164 162 160 159 157 156 156 156 152 146 142 138 134 132 130 127 121 124 115 83 72 79 86 75 61 47 358 328 308 299 297 295 294 293 294 293
214 198 188 181 175 172 168 164 163 160 158 156 152 148 146 142 139 135 131 128 127 127 124 117 101 82 76 83 87 88 69 34 353 328 311 294 290 287 289 287 290 290 289